TimeEDT,TemperatureF,Dew PointF,Humidity,Sea Level PressureIn,VisibilityMPH,Wind Direction,Wind SpeedMPH,Gust SpeedMPH,PrecipitationIn,Events,Conditions,WindDirDegrees,DateUTC
12:53 AM,70.0,68.0,93,29.93,10.0,Calm,Calm,-,0.00,,Scattered Clouds,0,2013-07-11 04:53:00
1:18 AM,70.0,68.0,93,30.01,10.0,Calm,Calm,-,N/A,,Partly Cloudy,0,2013-07-11 05:18:00
1:53 AM,70.0,68.0,93,29.93,10.0,Calm,Calm,-,0.00,,Scattered Clouds,0,2013-07-11 05:53:00
2:53 AM,70.0,68.0,93,29.93,9.0,Calm,Calm,-,N/A,,Scattered Clouds,0,2013-07-11 06:53:00
3:53 AM,70.0,68.0,93,29.93,9.0,Calm,Calm,-,N/A,,Mostly Cloudy,0,2013-07-11 07:53:00
4:13 AM,70.0,68.0,93,30.00,9.0,Calm,Calm,-,N/A,,Mostly Cloudy,0,2013-07-11 08:13:00
4:53 AM,71.1,69.1,93,29.92,8.0,WSW,3.5,-,N/A,,Overcast,240,2013-07-11 08:53:00
5:12 AM,71.1,69.1,93,29.99,8.0,Calm,Calm,-,N/A,,Overcast,0,2013-07-11 09:12:00
5:48 AM,71.6,69.8,94,30.00,6.0,Calm,Calm,-,N/A,,Overcast,0,2013-07-11 09:48:00
5:53 AM,71.1,69.1,93,29.93,6.0,Calm,Calm,-,N/A,,Overcast,0,2013-07-11 09:53:00
6:01 AM,71.1,69.1,93,30.00,6.0,Calm,Calm,-,N/A,,Overcast,0,2013-07-11 10:01:00
6:18 AM,71.1,69.1,93,30.01,6.0,Calm,Calm,-,N/A,,Overcast,0,2013-07-11 10:18:00
6:30 AM,71.1,69.1,93,30.01,5.0,Calm,Calm,-,0.00,Rain,Light Rain,0,2013-07-11 10:30:00
6:53 AM,71.1,69.1,93,29.94,6.0,SSW,3.5,-,0.00,,Overcast,210,2013-07-11 10:53:00
7:15 AM,71.1,69.1,93,30.02,9.0,SW,3.5,-,N/A,,Overcast,230,2013-07-11 11:15:00
7:25 AM,71.1,69.1,93,30.02,9.0,Calm,Calm,-,N/A,,Overcast,0,2013-07-11 11:25:00
7:53 AM,72.0,69.1,91,29.95,10.0,SW,3.5,-,N/A,,Overcast,220,2013-07-11 11:53:00
8:53 AM,72.0,68.0,87,29.96,10.0,WSW,5.8,-,N/A,,Overcast,240,2013-07-11 12:53:00
9:25 AM,73.0,69.1,87,30.03,10.0,WSW,5.8,-,N/A,,Overcast,250,2013-07-11 13:25:00
9:53 AM,73.9,68.0,82,29.95,10.0,WSW,4.6,-,N/A,,Overcast,240,2013-07-11 13:53:00
10:18 AM,73.9,68.0,82,30.02,10.0,West,3.5,-,N/A,,Overcast,270,2013-07-11 14:18:00
10:43 AM,75.0,68.0,79,30.02,10.0,Calm,Calm,-,N/A,,Overcast,0,2013-07-11 14:43:00
10:53 AM,73.9,68.0,82,29.95,10.0,Calm,Calm,-,N/A,,Overcast,0,2013-07-11 14:53:00
11:53 AM,77.0,68.0,74,29.94,10.0,WSW,4.6,-,N/A,,Overcast,250,2013-07-11 15:53:00
12:53 PM,77.0,68.0,74,29.94,10.0,Variable,6.9,-,N/A,,Overcast,0,2013-07-11 16:53:00
1:53 PM,79.0,68.0,69,29.93,10.0,WSW,3.5,-,N/A,,Overcast,240,2013-07-11 17:53:00
2:53 PM,79.0,68.0,69,29.91,10.0,WSW,3.5,-,N/A,,Mostly Cloudy,250,2013-07-11 18:53:00
3:53 PM,79.0,68.0,69,29.90,10.0,SW,5.8,-,N/A,,Mostly Cloudy,230,2013-07-11 19:53:00
4:53 PM,80.1,69.1,69,29.88,10.0,South,6.9,-,N/A,,Mostly Cloudy,170,2013-07-11 20:53:00
5:53 PM,80.1,68.0,67,29.86,10.0,SSW,8.1,-,N/A,,Mostly Cloudy,200,2013-07-11 21:53:00
6:53 PM,80.1,69.1,69,29.86,10.0,South,4.6,-,N/A,,Mostly Cloudy,170,2013-07-11 22:53:00
7:53 PM,78.1,70.0,76,29.86,10.0,ENE,3.5,-,N/A,,Mostly Cloudy,70,2013-07-11 23:53:00
8:11 PM,75.0,70.0,84,29.95,3.0,Calm,Calm,-,0.01,Rain-Thunderstorm,Thunderstorms and Rain,0,2013-07-12 00:11:00
8:53 PM,72.0,68.0,87,29.86,10.0,North,3.5,-,0.06,Thunderstorm,Thunderstorm,10,2013-07-12 00:53:00
9:10 PM,70.0,68.0,93,29.94,10.0,Calm,Calm,-,N/A,,Partly Cloudy,0,2013-07-12 01:10:00
9:53 PM,70.0,66.9,90,29.88,10.0,Calm,Calm,-,N/A,,Partly Cloudy,0,2013-07-12 01:53:00
10:53 PM,68.0,66.0,93,29.90,10.0,Calm,Calm,-,N/A,,Partly Cloudy,0,2013-07-12 02:53:00
11:53 PM,66.9,66.0,97,29.89,7.0,Calm,Calm,-,N/A,,Scattered Clouds,0,2013-07-12 03:53:00
11:57 PM,66.0,64.9,96,29.96,1.2,Calm,Calm,-,N/A,,Scattered Clouds,0,2013-07-12 03:57:00